Location: Casilda
(33.0440°S, 61.1680°W)
Time: 18:14:50
(UTC-03:00)

ISS - Pass Details

Date: 25 March 2023
Orbit: 413 x 421 km, 51.6° (Epoch: 30 March)

Event Time Altitude Azimuth Distance (km) Brightness Sun altitude
Exits shadow 05:21:42 19° 173° (S) 1,077 -1.5 -23.6°
Drops below altitude 10° 05:23:06 10° 156° (SSE) 1,527 -0.4 -23.3°
Sets 05:25:25 0° 143° (SE) 2,400 0.9 -22.9°
